GW3385 Weather Reports


Display with metric or nautical units.
time (UTC)temp
F
wind
direction
speed
MPH
gust
MPH
rain 1hr
in
rain 24hr
in
rain mn
in
humidity
%
barometer
mb
20260507082554 56 0 0.0 3.0 0.00 0.00 0.00 88 1015.8
20260507082058 56 0 0.0 2.0 0.00 0.00 0.00 88 1015.9
20260507081557 56 0 0.0 2.0 0.00 0.00 0.00 88 1016.0
20260507081054 56 0 0.0 3.0 0.00 0.00 0.00 89 1016.0
20260507080556 56 0 0.0 3.0 0.00 0.00 0.00 89 1015.9
20260507075554 57 0 1.0 3.0 0.00 0.00 0.00 90 1015.9
20260507075055 57 57 0.0 3.0 0.00 0.00 0.00 90 1015.9
20260507074609 56 0 0.0 4.0 0.00 0.00 0.00 90 1015.9
20260507074055 56 360 1.0 4.0 0.00 0.00 0.00 90 1015.9
20260507073555 57 338 1.0 3.0 0.00 0.00 0.00 90 1015.9
20260507073053 57 0 0.0 3.0 0.00 0.00 0.00 90 1016.0
20260507072555 57 0 0.0 3.0 0.00 0.00 0.00 90 1016.1
20260507072056 57 0 1.0 3.0 0.00 0.00 0.00 90 1016.2
20260507071554 57 0 0.0 3.0 0.00 0.00 0.00 90 1016.2
20260507071056 57 0 0.0 3.0 0.00 0.00 0.00 90 1016.2
20260507070555 57 0 1.0 3.0 0.00 0.00 0.00 90 1016.1
20260507070055 57 0 0.0 0.0 0.00 0.00 0.00 90 1016.2
20260507065555 57 0 0.0 0.0 0.00 0.00 0.00 90 1016.1
20260507065054 57 0 0.0 0.0 0.00 0.00 0.00 90 1016.2
20260507064554 57 0 0.0 0.0 0.00 0.00 0.00 90 1016.2
20260507064054 57 0 0.0 0.0 0.00 0.00 0.00 90 1016.3
20260507063555 57 0 0.0 0.0 0.00 0.00 0.00 90 1016.3
20260507063054 57 0 0.0 0.0 0.00 0.00 0.00 90 1016.2
20260507062555 57 0 0.0 1.0 0.00 0.00 0.00 90 1016.2
20260507062055 57 0 0.0 2.0 0.00 0.00 0.00 90 1016.2
20260507061552 57 0 0.0 3.0 0.00 0.00 0.00 90 1016.1
20260507061054 57 67 1.0 3.0 0.00 0.00 0.00 90 1016.1
20260507060554 58 63 1.0 3.0 0.00 0.00 0.00 89 1016.1
20260507060054 58 74 0.0 2.0 0.00 0.00 0.00 89 1016.2
20260507055555 58 92 0.0 3.0 0.00 0.00 0.00 89 1016.2
20260507055054 58 92 0.0 3.0 0.00 0.00 0.00 89 1016.3
20260507054636 58 92 2.0 4.0 0.00 0.00 0.00 89 1016.1
20260507054054 58 0 1.0 4.0 0.00 0.00 0.00 89 1016.1
20260507053554 58 86 0.0 3.0 0.00 0.00 0.00 89 1016.2
20260507053054 58 0 0.0 3.0 0.00 0.00 0.00 88 1016.1
20260507052555 58 92 1.0 3.0 0.00 0.00 0.00 88 1016.1
20260507052055 58 34 0.0 3.0 0.00 0.00 0.00 88 1016.1
20260507051553 58 34 0.0 3.0 0.00 0.00 0.00 88 1016.1
20260507051055 58 34 1.0 3.0 0.00 0.00 0.00 87 1016.1
20260507050555 58 0 0.0 3.0 0.00 0.00 0.00 87 1016.1
20260507050057 59 22 0.0 3.0 0.00 0.00 0.00 87 1016.1
20260507045555 59 57 0.0 2.0 0.00 0.00 0.00 87 1016.1
20260507045055 59 0 0.0 2.0 0.00 0.00 0.00 87 1016.0
20260507044601 59 0 0.0 0.0 0.00 0.00 0.00 86 1016.0
20260507044054 59 0 0.0 0.0 0.00 0.00 0.00 86 1016.0
20260507043554 59 0 0.0 0.0 0.00 0.00 0.00 86 1016.0
20260507043055 59 0 0.0 3.0 0.00 0.00 0.00 85 1016.0
20260507042554 59 0 0.0 3.0 0.00 0.00 0.00 85 1016.0
20260507042054 60 77 0.0 2.0 0.00 0.00 0.00 85 1016.0
20260507041601 60 0 0.0 2.0 0.00 0.00 0.00 85 1015.9
20260507041051 60 0 0.0 4.0 0.00 0.00 0.00 85 1015.8
20260507040555 60 0 1.0 4.0 0.00 0.00 0.00 85 1015.8
20260507040055 60 81 1.0 3.0 0.00 0.00 0.00 84 1015.6
20260507035555 60 0 0.0 0.0 0.00 0.00 0.00 84 1015.8
20260507035055 60 0 0.0 1.0 0.00 0.00 0.00 84 1015.9
20260507034559 60 0 0.0 1.0 0.00 0.00 0.00 84 1015.8
20260507034056 60 0 0.0 3.0 0.00 0.00 0.00 84 1015.6
20260507033558 60 0 0.0 3.0 0.00 0.00 0.00 84 1015.5
20260507033104 60 0 1.0 3.0 0.00 0.00 0.00 84 1015.4
20260507032555 60 0 0.0 2.0 0.00 0.00 0.00 83 1015.5
20260507032055 60 0 0.0 2.0 0.00 0.00 0.00 83 1015.4
20260507031606 60 0 0.0 2.0 0.00 0.00 0.00 83 1015.4
20260507031056 60 0 0.0 3.0 0.00 0.00 0.00 83 1015.3
20260507030555 60 0 0.0 5.0 0.00 0.00 0.00 83 1015.3
20260507030058 60 292 0.0 6.0 0.00 0.00 0.00 83 1015.3
20260507025559 60 227 2.0 6.0 0.00 0.00 0.00 83 1015.2
20260507025055 60 273 1.0 6.0 0.00 0.00 0.00 82 1015.2
20260507024554 60 294 3.0 7.0 0.00 0.00 0.00 81 1015.2
20260507024056 61 271 4.0 7.0 0.00 0.00 0.00 81 1015.2
20260507023555 61 263 1.0 6.0 0.00 0.00 0.00 80 1015.1
20260507023103 61 185 2.0 5.0 0.00 0.00 0.00 80 1015.0
20260507022555 61 196 1.0 9.0 0.00 0.00 0.00 80 1015.1
20260507022055 61 244 3.0 9.0 0.00 0.00 0.00 80 1015.0
20260507021553 61 273 3.0 11.0 0.00 0.00 0.00 80 1015.1
20260507021057 61 273 6.0 11.0 0.00 0.00 0.00 78 1015.0
20260507020556 61 244 5.0 12.0 0.00 0.00 0.00 78 1014.9
20260507020057 61 260 6.0 12.0 0.00 0.00 0.00 78 1014.9
20260507015554 62 261 8.0 12.0 0.00 0.00 0.00 76 1014.8
20260507015055 62 272 6.0 11.0 0.00 0.00 0.00 76 1014.8
20260507014604 62 279 6.0 13.0 0.00 0.00 0.00 76 1014.9
20260507014056 62 276 3.0 13.0 0.00 0.00 0.00 76 1014.9
20260507013556 62 276 7.0 13.0 0.00 0.00 0.00 75 1015.0
20260507013102 62 284 7.0 11.0 0.00 0.00 0.00 76 1014.9
20260507012555 62 259 3.0 15.0 0.00 0.00 0.00 78 1014.8
20260507012100 62 238 6.0 15.0 0.00 0.00 0.00 77 1014.8
20260507011557 62 272 9.0 15.0 0.00 0.00 0.00 75 1014.8
20260507011059 63 243 5.0 14.0 0.00 0.00 0.00 77 1014.8
20260507010555 63 243 4.0 12.0 0.00 0.00 0.00 77 1014.8
20260507005555 62 236 9.0 14.0 0.00 0.00 0.00 76 1014.8
20260507005055 63 278 9.0 16.0 0.00 0.00 0.00 75 1014.7
20260507004557 63 267 8.0 16.0 0.00 0.00 0.00 74 1014.8
20260507004056 63 267 9.0 15.0 0.00 0.00 0.00 72 1014.7
20260507003555 64 275 8.0 15.0 0.00 0.00 0.00 72 1014.7
20260507003057 65 305 10.0 15.0 0.00 0.00 0.00 70 1014.7
20260507002556 66 265 3.0 12.0 0.00 0.00 0.00 72 1014.6
20260507002055 65 227 4.0 12.0 0.00 0.00 0.00 71 1014.7
20260507001602 65 186 5.0 15.0 0.00 0.00 0.00 70 1014.7
20260507001055 65 222 4.0 15.0 0.00 0.00 0.00 69 1014.7
20260507000555 65 267 7.0 15.0 0.00 0.00 0.00 67 1014.7
20260507000056 66 281 7.0 15.0 0.00 0.00 0.00 66 1014.7
20260506235558 66 213 4.0 11.0 0.00 0.00 0.00 69 1014.6
20260506235055 66 227 6.0 11.0 0.00 0.00 0.00 68 1014.6
20260506234554 66 208 4.0 12.0 0.00 0.00 0.00 67 1014.6
20260506234055 66 168 6.0 13.0 0.00 0.00 0.00 67 1014.6
20260506233555 66 267 4.0 13.0 0.00 0.00 0.00 68 1014.6
20260506233114 66 240 8.0 14.0 0.00 0.00 0.00 68 1014.7
20260506232554 66 282 6.0 14.0 0.00 0.00 0.00 68 1014.7
20260506232054 66 201 7.0 14.0 0.00 0.00 0.00 68 1014.7
20260506231555 66 265 6.0 14.0 0.00 0.00 0.00 67 1014.8
20260506231056 66 284 6.0 14.0 0.00 0.00 0.00 66 1014.7
20260506230555 66 224 6.0 12.0 0.00 0.00 0.00 65 1014.8
20260506230052 66 229 6.0 16.0 0.00 0.00 0.00 67 1014.8
20260506225555 66 149 8.0 16.0 0.00 0.00 0.00 66 1014.8
20260506225054 66 213 7.0 16.0 0.00 0.00 0.00 66 1014.7
20260506224554 66 175 7.0 16.0 0.00 0.00 0.00 65 1014.9
20260506224058 66 192 7.0 14.0 0.00 0.00 0.00 65 1015.0
20260506223559 66 296 8.0 14.0 0.00 0.00 0.00 64 1015.1
20260506223055 66 280 8.0 14.0 0.00 0.00 0.00 65 1015.1
20260506222555 66 275 4.0 15.0 0.00 0.00 0.00 65 1015.2
20260506222055 66 268 8.0 15.0 0.00 0.00 0.00 65 1015.2
20260506221558 67 217 6.0 15.0 0.00 0.00 0.00 64 1015.3
20260506221054 67 166 4.0 15.0 0.00 0.00 0.00 64 1015.3
20260506220555 66 275 7.0 15.0 0.00 0.00 0.00 64 1015.5
20260506220056 66 314 7.0 15.0 0.00 0.00 0.00 63 1015.5
20260506215554 66 275 8.0 13.0 0.00 0.00 0.00 63 1015.5
20260506215054 66 261 8.0 14.0 0.00 0.00 0.00 64 1015.6
20260506214555 66 265 8.0 14.0 0.00 0.00 0.00 64 1015.6
20260506214055 66 223 7.0 13.0 0.00 0.00 0.00 61 1015.7
20260506213555 66 262 7.0 14.0 0.00 0.00 0.00 62 1015.7
20260506213111 66 221 8.0 14.0 0.00 0.00 0.00 61 1015.8
20260506212555 67 277 8.0 13.0 0.00 0.00 0.00 61 1015.8
20260506212056 67 282 4.0 15.0 0.00 0.00 0.00 60 1015.9
20260506211558 67 177 7.0 15.0 0.00 0.00 0.00 61 1016.0
20260506211055 66 252 6.0 13.0 0.00 0.00 0.00 64 1015.9
20260506210555 67 295 6.0 13.0 0.00 0.00 0.00 64 1016.1
20260506210057 66 299 7.0 13.0 0.00 0.00 0.00 63 1016.0
20260506205555 67 198 5.0 13.0 0.00 0.00 0.00 63 1016.1
20260506205055 67 290 5.0 13.0 0.00 0.00 0.00 63 1016.1
20260506204559 67 202 7.0 13.0 0.00 0.00 0.00 64 1016.2
20260506204054 66 26 5.0 11.0 0.00 0.00 0.00 65 1016.1
20260506203557 66 181 7.0 11.0 0.00 0.00 0.00 66 1016.1
20260506203055 66 189 6.0 13.0 0.00 0.00 0.00 65 1016.2
20260506202557 66 250 6.0 13.0 0.00 0.00 0.00 66 1016.1
20260506202055 66 246 7.0 13.0 0.00 0.00 0.00 64 1016.2
20260506201556 66 229 6.0 10.0 0.00 0.00 0.00 64 1016.3
20260506201054 66 203 4.0 10.0 0.00 0.00 0.00 65 1016.3
20260506200554 66 255 6.0 12.0 0.00 0.00 0.00 65 1016.4
20260506200054 66 297 5.0 12.0 0.00 0.00 0.00 65 1016.5
20260506195554 66 245 5.0 12.0 0.00 0.00 0.00 64 1016.6
20260506195056 66 215 6.0 12.0 0.00 0.00 0.00 64 1016.6
20260506194623 66 205 4.0 14.0 0.00 0.00 0.00 64 1016.5
20260506194058 66 198 4.0 14.0 0.00 0.00 0.00 66 1016.6
20260506193555 66 189 7.0 14.0 0.00 0.00 0.00 66 1016.5
20260506193104 66 263 5.0 11.0 0.00 0.00 0.00 66 1016.7
20260506192555 66 191 3.0 10.0 0.00 0.00 0.00 66 1016.8
20260506192054 66 236 3.0 12.0 0.00 0.00 0.00 66 1016.9
20260506191553 66 280 5.0 12.0 0.00 0.00 0.00 67 1017.0
20260506191056 65 250 4.0 13.0 0.00 0.00 0.00 66 1016.9
20260506190555 65 184 6.0 13.0 0.00 0.00 0.00 67 1017.0
20260506190057 65 263 5.0 11.0 0.00 0.00 0.00 67 1017.1
20260506185555 65 277 4.0 15.0 0.00 0.00 0.00 68 1017.1
20260506185056 65 208 6.0 15.0 0.00 0.00 0.00 69 1017.1
20260506184554 65 271 7.0 15.0 0.00 0.00 0.00 69 1017.1
20260506184055 65 281 7.0 11.0 0.00 0.00 0.00 68 1017.1
20260506183555 65 273 5.0 11.0 0.00 0.00 0.00 68 1017.0
20260506183055 65 286 5.0 10.0 0.00 0.00 0.00 69 1017.1
20260506182555 66 178 5.0 11.0 0.00 0.00 0.00 68 1017.2
20260506182054 66 140 4.0 11.0 0.00 0.00 0.00 69 1017.1
20260506181555 66 302 3.0 9.0 0.00 0.00 0.00 69 1017.2
20260506181052 65 225 4.0 10.0 0.00 0.00 0.00 69 1017.2
20260506180553 65 303 5.0 11.0 0.00 0.00 0.00 71 1017.2
20260506180104 65 188 4.0 11.0 0.00 0.00 0.00 70 1017.1
20260506175552 66 199 4.0 11.0 0.00 0.00 0.00 69 1017.2
20260506175056 66 171 5.0 9.0 0.00 0.00 0.00 68 1017.3
20260506174557 66 130 2.0 7.0 0.00 0.00 0.00 66 1017.4
20260506174052 66 168 3.0 8.0 0.00 0.00 0.00 67 1017.4
20260506173553 65 102 2.0 8.0 0.00 0.00 0.00 68 1017.3
20260506173058 65 295 4.0 10.0 0.00 0.00 0.00 68 1017.2
20260506172551 65 265 4.0 10.0 0.00 0.00 0.00 67 1017.3
20260506172055 66 186 2.0 9.0 0.00 0.00 0.00 67 1017.3
20260506171601 66 309 1.0 6.0 0.00 0.00 0.00 67 1017.3
20260506171056 65 257 1.0 3.0 0.00 0.00 0.00 67 1017.3
20260506170552 64 87 1.0 4.0 0.00 0.00 0.00 68 1017.1
20260506170106 64 265 1.0 6.0 0.00 0.00 0.00 68 1017.1
20260506165552 64 0 2.0 6.0 0.00 0.00 0.00 68 1017.2
20260506165053 64 218 2.0 6.0 0.00 0.00 0.00 68 1017.2
20260506164607 64 0 1.0 6.0 0.00 0.00 0.00 69 1017.1
20260506164053 63 274 3.0 6.0 0.00 0.00 0.00 70 1017.1
20260506163552 63 226 2.0 6.0 0.00 0.00 0.00 70 1017.2
20260506163119 63 0 1.0 4.0 0.00 0.00 0.00 72 1017.1
20260506162553 63 59 1.0 5.0 0.00 0.00 0.00 72 1017.2
20260506162054 63 198 2.0 6.0 0.00 0.00 0.00 73 1017.4
20260506161616 63 175 1.0 6.0 0.00 0.00 0.00 72 1017.3
20260506161052 63 80 2.0 6.0 0.00 0.00 0.00 73 1017.3
20260506160555 63 92 2.0 6.0 0.00 0.00 0.00 73 1017.3
20260506160057 63 109 1.0 4.0 0.00 0.00 0.00 74 1017.3
20260506155556 62 89 1.0 5.0 0.00 0.00 0.00 75 1017.4
20260506155054 62 62 1.0 5.0 0.00 0.00 0.00 76 1017.4
20260506154619 61 55 1.0 6.0 0.00 0.00 0.00 77 1017.4
20260506154052 61 5 1.0 6.0 0.00 0.00 0.00 77 1017.3
20260506153553 61 85 1.0 6.0 0.00 0.00 0.00 78 1017.4
20260506153107 60 118 2.0 6.0 0.00 0.00 0.00 79 1017.4
20260506152553 60 83 0.0 7.0 0.00 0.00 0.00 81 1017.3
20260506152058 60 32 1.0 7.0 0.00 0.00 0.00 81 1017.3
20260506151558 59 0 3.0 7.0 0.00 0.00 0.00 81 1017.3
20260506151052 59 93 3.0 7.0 0.00 0.00 0.00 81 1017.2
20260506150555 59 57 1.0 5.0 0.00 0.00 0.00 82 1017.3
20260506150052 59 0 1.0 8.0 0.00 0.00 0.00 82 1017.3
20260506145554 59 31 2.0 8.0 0.00 0.00 0.00 82 1017.3
20260506145054 59 75 2.0 6.0 0.00 0.00 0.00 82 1017.3
20260506144553 59 59 2.0 5.0 0.00 0.00 0.00 82 1017.4
20260506144054 58 26 1.0 5.0 0.00 0.00 0.00 82 1017.3
20260506143555 58 352 1.0 5.0 0.00 0.00 0.00 83 1017.4
20260506143104 57 35 1.0 5.0 0.00 0.00 0.00 83 1017.4
20260506142556 57 21 0.0 4.0 0.00 0.00 0.00 84 1017.2
20260506142052 57 43 1.0 3.0 0.00 0.00 0.00 85 1017.2
20260506141554 56 0 0.0 3.0 0.00 0.00 0.00 85 1017.1
20260506141055 56 20 0.0 3.0 0.00 0.00 0.00 85 1017.1
20260506140555 55 0 0.0 2.0 0.00 0.00 0.00 85 1017.0
20260506140057 55 345 0.0 2.0 0.00 0.00 0.00 85 1017.0
20260506135552 55 0 0.0 1.0 0.00 0.00 0.00 86 1016.9
20260506135052 54 0 0.0 2.0 0.00 0.00 0.00 87 1016.9
20260506134555 54 0 0.0 2.0 0.00 0.00 0.00 87 1016.7
20260506134052 54 0 0.0 2.0 0.00 0.00 0.00 87 1016.8
20260506133552 53 0 0.0 1.0 0.00 0.00 0.00 88 1016.8
20260506133057 53 0 0.0 2.0 0.00 0.00 0.00 88 1016.7
20260506132551 53 0 0.0 2.0 0.00 0.00 0.00 88 1016.7
20260506132057 53 0 0.0 1.0 0.00 0.00 0.00 87 1016.7
20260506131557 53 0 0.0 2.0 0.00 0.00 0.00 87 1016.6
20260506131052 53 0 0.0 3.0 0.00 0.00 0.00 87 1016.6
20260506130553 53 0 0.0 3.0 0.00 0.00 0.00 88 1016.5
20260506130054 53 342 0.0 3.0 0.00 0.00 0.00 87 1016.5
20260506125552 53 331 0.0 1.0 0.00 0.00 0.00 87 1016.3
20260506125057 53 0 0.0 1.0 0.00 0.00 0.00 87 1016.3
20260506124553 53 0 0.0 0.0 0.00 0.00 0.00 87 1016.2
20260506124052 53 0 0.0 0.0 0.00 0.00 0.00 87 1016.2
20260506123553 53 0 0.0 0.0 0.00 0.00 0.00 87 1016.0
20260506123055 53 0 0.0 0.0 0.00 0.00 0.00 87 1016.1
20260506122553 53 0 0.0 0.0 0.00 0.00 0.00 87 1016.1
20260506122052 53 0 0.0 1.0 0.00 0.00 0.00 87 1016.1
20260506121553 53 0 0.0 2.0 0.00 0.00 0.00 87 1016.0
20260506121055 53 0 0.0 2.0 0.00 0.00 0.00 87 1016.0
20260506120555 53 332 0.0 2.0 0.00 0.00 0.00 87 1016.0
20260506120058 53 0 0.0 2.0 0.00 0.00 0.00 87 1016.0
20260506115552 53 0 0.0 2.0 0.00 0.00 0.00 87 1015.9
20260506115052 53 321 0.0 0.0 0.00 0.00 0.00 87 1015.9
20260506114605 53 0 0.0 1.0 0.00 0.00 0.00 87 1015.9
20260506114058 53 0 0.0 2.0 0.00 0.00 0.00 87 1016.0
20260506113552 53 0 0.0 2.0 0.00 0.00 0.00 87 1015.9
20260506113055 54 0 0.0 2.0 0.00 0.00 0.00 87 1015.9
20260506112556 54 0 0.0 1.0 0.00 0.00 0.00 87 1015.9
20260506112052 54 0 0.0 2.0 0.00 0.00 0.00 87 1015.8
20260506111555 54 0 0.0 3.0 0.00 0.00 0.00 87 1015.9
20260506111055 54 0 0.0 3.0 0.00 0.00 0.00 87 1015.8
20260506110555 54 0 1.0 3.0 0.00 0.00 0.00 87 1015.8
20260506110104 54 325 0.0 1.0 0.00 0.00 0.00 87 1015.9
20260506105558 54 0 0.0 2.0 0.00 0.00 0.00 87 1015.8
20260506105054 54 0 0.0 2.0 0.00 0.00 0.00 87 1015.9
20260506104553 54 0 0.0 2.0 0.00 0.00 0.00 87 1016.0
20260506104054 54 0 0.0 0.0 0.00 0.00 0.00 87 1016.0
20260506103554 54 0 0.0 0.0 0.00 0.00 0.00 87 1015.9
20260506103059 54 0 0.0 0.0 0.00 0.00 0.00 87 1015.9
20260506102555 54 0 0.0 0.0 0.00 0.00 0.00 87 1016.0
20260506102055 54 0 0.0 0.0 0.00 0.00 0.00 87 1015.9
20260506101603 54 0 0.0 3.0 0.00 0.00 0.00 87 1016.0
20260506101055 54 0 1.0 3.0 0.00 0.00 0.00 87 1015.9
20260506100555 54 0 0.0 2.0 0.00 0.00 0.00 87 1015.9
20260506100055 54 0 0.0 2.0 0.00 0.00 0.00 87 1015.9
20260506095559 54 0 0.0 2.0 0.00 0.00 0.00 87 1016.0
20260506095055 54 0 0.0 4.0 0.00 0.00 0.00 87 1016.1
20260506094622 54 0 1.0 4.0 0.00 0.00 0.00 87 1016.0
20260506094054 54 351 0.0 3.0 0.00 0.00 0.00 87 1016.0
20260506093556 54 0 0.0 3.0 0.00 0.00 0.00 87 1016.0
20260506093058 54 0 0.0 3.0 0.00 0.00 0.00 87 1016.0
20260506092555 54 321 0.0 2.0 0.00 0.00 0.00 87 1016.0
20260506092055 54 0 0.0 2.0 0.00 0.00 0.00 87 1015.9
20260506091556 54 0 0.0 2.0 0.00 0.00 0.00 87 1016.0
20260506091054 54 0 0.0 1.0 0.00 0.00 0.00 87 1016.1
20260506090554 54 0 0.0 1.0 0.00 0.00 0.00 87 1016.1
20260506085555 54 0 0.0 3.0 0.00 0.00 0.00 87 1016.3
20260506085055 54 0 1.0 4.0 0.00 0.00 0.00 87 1016.2
20260506084554 54 349 1.0 4.0 0.00 0.00 0.00 87 1016.3
20260506084058 54 0 2.0 4.0 0.00 0.00 0.00 87 1016.3
20260506083555 54 338 2.0 4.0 0.00 0.00 0.00 86 1016.4
20260506083103 54 343 2.0 3.0 0.00 0.00 0.00 86 1016.2